Location: Eschentzwiller
(47.7125°N, 7.3981°E)
Time: 01:53:38
(UTC+00:00)

GENESIS II - Visible Passes

Search period start: 28 February 2021 00:00
Search period end: 10 March 2021 00:00
Orbit: 496 x 530 km, 64.5° (Epoch: 27 February)

Date Brightness Start Highest point End Pass type
(mag) Time Alt. Az. Time Alt. Az. Time Alt. Az.
28 Feb 6.7 05:07:11 10° S 05:10:26 24° ESE 05:13:42 10° ENE visible
01 Mar 6.6 04:50:31 10° S 04:53:47 24° ESE 04:57:03 10° ENE visible
02 Mar 6.5 04:33:52 10° S 04:37:07 24° ESE 04:40:24 10° ENE visible
03 Mar 6.4 04:17:12 10° S 04:20:28 25° ESE 04:23:44 10° ENE visible
04 Mar 6.3 04:00:36 10° S 04:03:48 25° ESE 04:07:05 10° ENE visible
05 Mar 6.3 03:45:12 17° SSE 03:47:08 25° ESE 03:50:26 10° ENE visible
05 Mar 4.7 05:20:47 10° WSW 05:24:35 42° NW 05:28:23 10° NNE visible
06 Mar 6.1 03:29:38 23° SE 03:30:28 25° ESE 03:33:45 10° ENE visible
06 Mar 4.8 05:04:36 13° WSW 05:07:55 42° NW 05:11:44 10° NNE visible
07 Mar 6.2 03:13:55 25° ESE 03:13:55 25° ESE 03:17:05 10° ENE visible
07 Mar 4.8 04:48:52 20° WSW 04:51:15 42° NW 04:55:03 10° NNE visible
08 Mar 6.5 02:58:05 23° E 02:58:05 23° E 03:00:26 10° ENE visible
08 Mar 4.8 04:33:01 28° W 04:34:35 41° NW 04:38:23 10° NNE visible
09 Mar 6.8 02:42:09 19° E 02:42:09 19° E 02:43:45 10° ENE visible
09 Mar 4.8 04:17:05 36° WNW 04:17:55 41° NW 04:21:43 10° NNE visible
